Regional Weather Roundup
Issued by NWS

Home | Current Version | Previous Version | Text Only | Print | Product List | Glossary Off
Versions: 1 2 3 4 5 6 7 8 9 10 11 12 13 14 15 16 17 18 19 20 21 22 23 24 25 26 27 28 29 30 31 32 33 34 35 36 37 38 39 40 41 42 43 44 45 46 47 48 49 50

000
ASUS45 KTFX 241710
RWRMT
MONTANA REGIONAL WEATHER ROUNDUP
NATIONAL WEATHER SERVICE GREAT FALLS MT
1100 AM MDT FRI MAR 24 2017

NOTE: "FAIR" INDICATES FEW OR NO CLOUDS BELOW 12000 FEET WITH NO
SIGNIFICANT WEATHER AND/OR OBSTRUCTIONS TO VISIBILITY.

MTZ001>007-043-241800-
WEST OF THE DIVIDE

CITY           SKY/WX    TMP DP  RH WIND       PRES   REMARKS
KALISPELL      CLOUDY    37  26  64 SE5       29.94F
MISSOULA       CLOUDY    34  28  79 CALM      29.97F
BUTTE          SUNNY     40  22  48 CALM      29.99F
MULLAN PASS    CLOUDY    29  26  89 VRB5      29.84F
ANACONDA         N/A     46  18  31 SE10      29.96F
DEER LODGE       N/A     39  25  56 CALM      29.98F
EUREKA           N/A     34  25  69 CALM      29.95F
HAMILTON         N/A     37  25  60 W3        29.95F
$$

MTZ008-052>055-241800-
SOUTHWEST MONTANA

CITY           SKY/WX    TMP DP  RH WIND       PRES   REMARKS
BOZEMAN        SUNNY     44  27  51 VRB3      30.02F
DILLON         SUNNY     44  24  45 NW3       30.01F
W YELLOWSTONE  SUNNY     36  19  51 SW12G20   30.17S WCI  27
ENNIS          SUNNY     48  19  32 S26G37    30.07F
THREE FORKS      N/A     43  -7  12 E6        30.01F
$$

MTZ009-010-012-014-046-048-049-054-241800-
EAST SLOPES AND CENTRAL MONTANA

CITY           SKY/WX    TMP DP  RH WIND       PRES   REMARKS
CUT BANK       MOSUNNY   39  20  46 SE10      29.90F
GREAT FALLS    SUNNY     52  20  28 S18       29.93F
MALMSTROM AFB  SUNNY     55  20  26 S23       29.93F
HELENA         SUNNY     39  25  57 CALM      29.99F
AUGUSTA          N/A     44  24  45 S12       29.91F
BOWMANS CRNR     N/A     43  22  43 S22       29.90F
CHOTEAU          N/A     48  25  40 S12       29.93F
CONRAD           N/A     44  32  63 SE12      29.94F
FAIRFIELD        N/A     47  21  35 S18       29.91F
POWER            N/A     47  23  38 S17       29.92F
RAYNESFORD       N/A     55  17  22 SW16G22   29.94F
$$

MTZ011-013-016-021-045-047-050-051-241800-
NORTH CENTRAL MONTANA

CITY           SKY/WX    TMP DP  RH WIND       PRES   REMARKS
HAVRE          CLOUDY    47  27  45 CALM      29.97F
LEWISTOWN      SUNNY     53  21  28 VRB5      29.98F
N BAR RANCH      N/A     50  27  40 S17G24    30.04F
CHINOOK          N/A     45  28  53 E8        29.99F
DENTON           N/A     54  23  30 S21       29.94F
FORT BENTON      N/A     45  27  49 MISG      29.97F
GEYSER           N/A     50  24  36 SE3       29.95F
GRASS RANGE      N/A     56  25  30 S17       29.95F
STANFORD         N/A     52  19  27 S23       29.97F
WINIFRED         N/A     52  24  34 CALM      29.97F
$$

MTZ017>020-022>027-061-062-241800-
NORTHEAST MONTANA

CITY           SKY/WX    TMP DP  RH WIND       PRES   REMARKS
GLASGOW        SUNNY     45  29  53 VRB3      30.05F
JORDAN           N/A     54  30  40 CALM      30.05R
WOLF POINT     SUNNY     45  36  70 CALM      30.08F
MALTA          SUNNY     46  28  49 VRB3      30.02F
PLENTYWOOD       N/A     41  36  81 SE8       30.09F
POPLAR           N/A     45  36  70 SE3       30.08F VSB 3/4
SCOBEY           N/A     45  33  62 N6        30.04F
$$

MTZ028>42-056>058-241800-
SOUTHCENTRAL AND SOUTHEAST MONTANA

CITY           SKY/WX    TMP DP  RH WIND       PRES   REMARKS
BAKER          SUNNY     52  36  54 CALM      30.12R
BILLINGS       MOSUNNY   47  33  58 S3        30.06S
LIVINGSTON     SUNNY     49  24  37 VRB5      30.02F
MILES CITY     SUNNY     50  38  63 SE7       30.09S
BIG TIMBER     SUNNY     48  25  40 W6        30.06F
EKALAKA          N/A     53  36  52 E3        30.08
FORSYTH          N/A     54  39  58 CALM      30.07F
HARLOWTON        N/A     44  24  45 SE8       30.03F
LAUREL           N/A     50  37  60 CALM      30.03F
$$

REGIONAL REPORTS...DAKOTAS

CITY           SKY/WX    TMP DP  RH WIND       PRES   REMARKS
WILLISTON      SUNNY     44  30  57 SE8       30.13R
MINOT          PTSUNNY   35  27  72 E13       30.18R WCI  26
DICKINSON      SUNNY     44  31  60 VRB6      30.11R
BEACH            N/A    N/A N/A N/A MISG        N/A
TIOGA            N/A     37  36  93 SE8       30.15S WCI  31
WATFORD CITY     N/A     43  32  65 E9        30.13R
BISMARCK       MOSUNNY   38  31  76 E8        30.19R
GRAND FORKS    PTSUNNY   35  29  78 N16       30.20R WCI  25
FARGO          MOSUNNY   38  31  76 N17       30.16R WCI  28
BUFFALO SD       N/A     53  41  63 E3        30.06R
RAPID CITY     SUNNY     55  37  50 N12       30.11S
$$

REGIONAL REPORTS...WYOMING/IDAHO/WASHINGTON

CITY           SKY/WX    TMP DP  RH WIND       PRES   REMARKS
GILLETTE         N/A     49  32  52 CALM      30.13F
SHERIDAN       SUNNY     53  35  50 SE14      30.10S
BUFFALO WY     SUNNY     51  32  48 SE15      30.14R
CODY           SUNNY     49  25  39 S15       30.11S
YELLOWSTONE LA   N/A     31  23  72 CALM      30.20S
IDAHO FALLS    SUNNY     49  25  39 S13G18    30.18S
SALMON         MOSUNNY   39  25  56 CALM      30.01F
BOISE          CLOUDY    53  28  38 SE17G29   30.02R
SPOKANE        LGT RAIN  39  36  89 NE3       29.87S
$$

REGIONAL REPORTS...ALBERTA

CITY           SKY/WX    TMP DP  RH WIND       PRES   REMARKS
EDMONTON       MOSUNNY   30  25  80 SE10      29.83F WCI  21
CALGARY        CLOUDY    37  25  60 S9        29.77F WCI  31
LETHBRIDGE     CLOUDY    46  21  36 SE9       29.87F
MEDICINE HAT   PTSUNNY   45  30  57 S9        29.92F
WATERTON GATE    N/A     46  18  31 S7G23       N/A
CARDSTON         N/A     46  16  29 SE6         N/A
MILK RIVER       N/A     43  25  49 S18G25      N/A
$$

REGIONAL REPORTS...SASKATCHEWAN

CITY           SKY/WX    TMP DP  RH WIND       PRES   REMARKS
SWIFT CURRENT  SUNNY     41  36  81 S17       29.97F
REGINA         MOSUNNY   37  30  75 SE14      30.11F WCI  29
SASKATOON      PTSUNNY   34  21  60 SE7       30.12F WCI  28
CYPRESS HILLS    N/A     39  21  48 S13         N/A  WCI  32
VAL MARIE        N/A     46  27  46 S2          N/A
ROCKGLEN         N/A     45  36  70 S9          N/A
ASSINIBOIA       N/A     25  23  93 SE7         N/A  WCI  17
$$



USA.gov is the U.S. government's official web portal to all federal, state and local government web resources and services.